[Date Prev][Date Next][Thread Prev][Thread Next] - [Date Index][Thread Index][Author Index]

2 Line ISS Keps 10-22



ISS
1 25544U 98067A   04296.29719223  .00019871  00000-0  17035-3 0  9676
2 25544  51.6367  37.1747 0008561 259.6745 200.9960 15.69367781338280
----
Via the sarex mailing list at AMSAT.ORG courtesy of AMSAT-NA.
To unsubscribe, send "unsubscribe sarex" to Majordomo@amsat.org



AMSAT Top AMSAT Home